User: anonymous   Login
Location: Vancouver
(49.2500°N, 123.1330°W)
Time: 11:49:03
(UTC-07:00)
Language:

JAS-1B - Orbit

View from above orbital plane
View from above orbital plane
View from above satellite
View from above satellite

Ground track
Ground track

The orbit data is extracted from the following two-line orbital elements,

1 20480U 90013C   15246.85581435 -.00000021 +00000-0 +18512-4 0  9999
2 20480 099.0565 132.3133 0541025 069.4103 018.1187 12.83407364197995
Epoch (UTC): 03 September 2015 20:32:22
Eccentricity: 0.0541025
inclination: 99.0565°
perigee height: 911 km
apogee height: 1745 km
right ascension of ascending node: 132.3133°
argument of perigee: 69.4103°
revolutions per day: 12.83407364
mean anomaly at epoch: 18.1187°
orbit number at epoch: 19799

The dashed part of the orbit path shows where the satellite is in the earth's shadow,  

DLR